This demonstration page uses our WeatherBlox Daily Observations layout. Learn more.

Left ArrowRight Arrow

34.74481, -87.66753

Hourly Observations for July 12, 2019

Temp ( °F °C ) Dew Point ( °F °C ) Humidity (%) Winds ( mph kmh ) Pressure ( in mb ) Visibility ( mi km ) Precip ( " mm )
12:53 am 00:53 Mostly Cloudy 78 25.6 75 23.9 90 90 SW 3 6 29.87 1011 10 16 0.00 0.00
1:53 am 01:53 Mostly Clear 77 25 73 22.8 88 88 Calm 29.86 1011 10 16 0.00 0.00
2:53 am 02:53 Clear 76 24.4 73 22.8 91 91 ESE 3 6 29.85 1011 10 16 0.00 0.00
3:53 am 03:53 Clear 76 24.4 73 22.8 91 91 Calm 29.84 1011 10 16 0.00 0.00
5:53 am 05:53 Sunny 75 23.9 73 22.8 94 94 Calm 29.87 1012 10 16 0.00 0.00
6:53 am 06:53 Partly Cloudy 77 25 73 22.8 88 88 Calm 29.88 1012 10 16 0.00 0.00
7:53 am 07:53 Cloudy 79 26.1 74 23.3 85 85 Calm 29.89 1012 10 16 0.00 0.00
8:53 am 08:53 Mostly Cloudy 81 27.2 74 23.3 79 79 SSW 5 7 29.90 1013 10 16 0.00 0.00
9:53 am 09:53 Cloudy 85 29.4 75 23.9 72 72 VRB 5 7 29.91 1013 10 16 0.00 0.00
10:53 am 10:53 Cloudy 86 30 75 23.9 70 70 Calm 29.92 1013 10 16 0.00 0.00
11:46 am 11:46 Mostly Cloudy 88 31.1 76 24.4 68 68 WSW 6 9 29.92 1013 10 16 0.00 0.00
11:53 am 11:53 Mostly Cloudy 87 30.6 75 23.9 67 67 W 6 9 29.93 1013 10 16 0.00 0.00
12:23 pm 12:23 Mostly Cloudy 86 30 73 22.8 65 65 WNW 6 9 29.92 1013 10 16 0.00 0.00
12:53 pm 12:53 Cloudy 86 30 75 23.9 70 70 W 6 9 29.91 1013 10 16 0.00 0.00
1:53 pm 13:53 Partly Cloudy 89 31.7 77 25 68 68 Calm 29.89 1012 10 16 0.06 1.52
2:53 pm 14:53 Mostly Sunny 91 32.8 74 23.3 57 57 VRB 6 9 29.88 1012 10 16 0.00 0.00
3:53 pm 15:53 Sunny 93 33.9 73 22.8 52 52 Calm 29.87 1011 10 16 0.00 0.00
4:53 pm 16:53 Partly Cloudy 90 32.2 77 25 66 66 NE 6 9 29.86 1011 10 16 0.00 0.00
5:53 pm 17:53 Sunny 90 32.2 72 22.2 56 56 Calm 29.85 1011 10 16 0.00 0.00
6:53 pm 18:53 Sunny 88 31.1 76 24.4 68 68 NNE 7 11 29.86 1011 10 16 0.00 0.00
7:53 pm 19:53 Sunny 85 29.4 77 25 77 77 NE 8 13 29.88 1012 10 16 0.00 0.00
8:53 pm 20:53 Clear 83 28.3 76 24.4 79 79 ENE 6 9 29.89 1012 10 16 0.00 0.00
9:53 pm 21:53 Partly Cloudy 82 27.8 75 23.9 79 79 E 5 7 29.91 1013 10 16 0.00 0.00
10:53 pm 22:53 Mostly Cloudy 81 27.2 72 22.2 74 74 ESE 6 9 29.92 1013 10 16 0.00 0.00
11:49 pm 23:49 Cloudy with Nearby Thunderstorms 81 27 73 23 79 79 ESE 13 20 29.95 1014 10 16 0.00 0.00
11:53 pm 23:53 Cloudy with Nearby Thunderstorms 80 26.7 73 22.8 79 79 ESE 14 22 29.96 1015 10 16 0.00 0.00

Powered by AerisWeather